World > North America > United States > Texas

Malta, Texas Regional Weather

Lat: 33.49N, Lon: 94.52W
Wx Zone: TXZ097Web Search
Malta Weather Warning NWS WEATHER ALERT FOR THE MALTA, TX AREA - Issued: 1238 PM CDT Thu Apr 15 2021 Malta Weather Warning  

Helpful Tip: Abbreviated, 7 Day, 14 Day Forecasts. There is a weather forecast for every taste.

Feedback


°F Click to change Malta hourly weather to Imperial units.Click to change Malta hourly weather to Metric units. °C
Malta Weather Map
UTC Time: 4/15/2021, 23:39
Your Time:

Malta, TX Regional Weather

Expires:202104160000;;613257
ASUS44 KFWD 152315
RWRTX 
NORTH TEXAS HOURLY WEATHER ROUNDUP
NATIONAL WEATHER SERVICE FORT WORTH TX
600 PM CDT THU APR 15 2021

NOTE: "FAIR" INDICATES FEW OR NO CLOUDS BELOW 12,000 FEET WITH NO
SIGNIFICANT WEATHER AND/OR OBSTRUCTIONS TO VISIBILITY.


TXZ095>097-106>112-122>126-135>138-148>153-164>167-160000-
EAST TEXAS
  
CITY           SKY/WX    TMP DP  RH WIND       PRES   REMARKS
PARIS          LGT RAIN  61  53  75 NE8       29.96S                  
SULPHUR SPRNGS FAIR      63  52  68 NE6       29.97R                  
GILMER         FAIR      62  52  70 N10       29.91F                  
MINEOLA        LGT RAIN  63  55  77 CALM      29.93R                  
TYLER          RAIN      62  54  74 E7        29.95R                  
LONGVIEW       FAIR      64  52  64 NE6       29.91S                  
MARSHALL       FAIR      65  54  69 NE3       29.94S                  
ATHENS         LGT RAIN  61  55  82 CALM      29.91S                  
PALESTINE      LGT RAIN  61  61 100 S5        29.92F FOG              
JACKSONVILLE   RAIN      61  58  90 CALM      29.93F                  
HENDERSON      PTSUNNY   65  53  65 S3        29.97R                  
CENTER         FAIR      68  54  60 E7        29.91R                  
NACOGDOCHES    CLOUDY    67  58  72 E5        29.93R                  
LUFKIN         FAIR      66  58  75 NE6       29.89F                  
$$

SUPPLEMENTAL OBSERVATIONS (NWS FORT WORTH AREA)
  
CITY           SKY/WX    TMP DP  RH WIND       PRES   REMARKS
POSSUM KINGDOM   N/A     54  52  94 SE8         N/A                   
GRANBURY         N/A     55  54  94 NW9         N/A                   
COMANCHE         N/A     55  54  94 E9          N/A                   
MCGREGOR         N/A     57  55  94 N7G16       N/A                   
TEMPLE           N/A     63  59  88 E13G21      N/A                   
LAKE LIMESTONE   N/A     61  59  94 SE8         N/A                   
$$

SUPPLEMENTAL OBSERVATIONS (NWS NORMAN AREA)
  
CITY           SKY/WX    TMP DP  RH WIND       PRES   REMARKS
GOODLETT         N/A     49  46  89 NE16      29.94F                  
ODELL            N/A     49  48  94 NE12      29.97F                  
CROWELL          N/A     51  49  93 E14       29.94F                  
KNOX CITY        N/A     54  52  92 E9        29.92F                  
SEYMOUR          N/A     52  50  93 NE9       29.93F                  
MILLERS CREEK    N/A     55  52  88 E12         N/A                   
$$

SUPPLEMENTAL OBSERVATIONS (NWS SAN ANGELO AREA)
  
CITY           SKY/WX    TMP DP  RH WIND       PRES   REMARKS
WEINERT          N/A     53  50  89 E13       29.93F                  
HASKELL          N/A     52  51  97 E10       29.92F                  
THROCKMORTON     N/A     52  52 100 E8        29.93F                  
STAMFORD         N/A     53  52  97 E8        29.92F                  
CLYDE            N/A     53  53  99 E16       29.91F                  
HAMBY            N/A     54  52  94 E12         N/A                   
IVIE RESERVOIR   N/A     57  55  94 NE10        N/A                   
COLORADO BEND    N/A     57  55  94 NE6G16      N/A                   
$$

SUPPLEMENTAL OBSERVATIONS (NWS SHREVEPORT AREA)
  
CITY           SKY/WX    TMP DP  RH WIND       PRES   REMARKS
TEXARKANA        N/A     66  48  52 NE2         N/A                   
LUFKIN           N/A     64  55  72 MISG        N/A                   
N SABINE NF      N/A     68  55  64 MISG        N/A                   
$$

SUPPLEMENTAL OBSERVATIONS ARE A COLLECTION OF AUTOMATED INSTRUMENTS
THAT ARE MAINTAINED BY A VARIETY OF FEDERAL AND STATE AGENCIES. 
CERTAIN ELEMENTS...SUCH AS HUMIDITY VALUES AND SUSTAINED WIND 
SPEEDS...MAY BE APPROXIMATED.

  

SKY/WX - Weather  TMP - Temperature  DP - Dew Point  RH - Relative Humidity
WIND - Wind Direction/Speed PRES - Barometric Pressure VSB - Visibility
WCI - Wind Chill Index E13G22 Wind - East Wind 13 mph/Gusts of 22 mph